Regional Weather Roundup
Issued by NWS

Home | Current Version | Previous Version | Graphics & Text | Print | Product List | Glossary On
Versions: 1 2 3 4 5 6 7 8 9 10 11 12 13 14 15 16 17 18 19 20 21 22 23 24 25 26 27 28 29 30 31 32 33 34 35 36 37 38 39 40 41 42 43 44 45 46 47 48 49 50
925
ASUS43 KFSD 091302
RWRSD

WEATHER ROUNDUP FOR SOUTH DAKOTA
NATIONAL WEATHER SERVICE SIOUX FALLS SD
700 AM CST FRI DEC 09 2016

NOTE: "FAIR" INDICATES FEW OR NO CLOUDS BELOW 12,000 FEET WITH NO
SIGNIFICANT WEATHER AND/OR OBSTRUCTIONS TO VISIBILITY.


SDZ001>005-009-010-012>017-091400-
NORTHWEST AND NORTH CENTRAL SOUTH DAKOTA

CITY           SKY/WX    TMP DP  RH WIND       PRES   REMARKS
BUFFALO          N/A     -8 -12  83 NE7       30.28S WCI -23
FAITH            N/A     -2  -7  79 NE7       30.41R WCI -15
MOBRIDGE       CLOUDY    -2  -8  76 NW6       30.50S WCI -14
$$

SDZ012>016-024>037-041>051-057-063-072>074-091400-
SOUTHWEST AND SOUTH CENTRAL SOUTH DAKOTA

CITY           SKY/WX    TMP DP  RH WIND       PRES   REMARKS
RAPID CTY ARPT LGT SNOW  -1  -6  79 N9        30.31F WCI -16
PIERRE         CLOUDY     2  -2  83 E8        30.51S WCI -12
CUSTER         LGT SNOW   4  -1  80 NE5       30.03R WCI  -5
ELLSWORTH AFB  FLURRIES  -2  -6  84 N9        30.30  WCI -18
PHILIP         LGT SNOW   1  -2  87 E14       30.43S FOG     WCI -17
PINE RIDGE     LGT SNOW   9   5  84 NE7       30.23R FOG     WCI  -2
SPEARFISH      MOCLDY    -6 -11  77 CALM      30.25R
WINNER         FAIR       3  -1  83 E8        30.48R WCI -10
$$

SDZ004>011-016>023-039-040-091400-
NORTHEAST SOUTH DAKOTA

CITY           SKY/WX    TMP DP  RH WIND       PRES   REMARKS
ABERDEEN       CLOUDY    -5 -11  75 NW7       30.58S WCI -19
WATERTOWN      CLOUDY    -4  -8  83 NW6       30.49F WCI -16
SISSETON         N/A     -2  -8  76 NW7       30.56S WCI -15
$$

SDZ017-020-022-023-036>040-048>070-091400-
SOUTHEAST SOUTH DAKOTA

CITY           SKY/WX    TMP DP  RH WIND       PRES   REMARKS
SIOUX FALLS    CLOUDY     0  -4  83 CALM      30.54F
HURON          CLOUDY    -2  -5  87 NW6       30.59R WCI -14
CHAMBERLAIN    CLOUDY     3  -1  82 E3        30.53S
MITCHELL       CLOUDY     1  -4  79 N5        30.59F WCI  -9
YANKTON        CLOUDY     1  -2  85 CALM      30.57S
$$

ABBREVIATIONS USED IN REMARKS
   TC - TEMPERATURE IN CELSIUS
  WCI - WIND CHILL INDEX
   HX - HEAT INDEX
  VSB - VISIBILITY





USA.gov is the U.S. government's official web portal to all federal, state and local government web resources and services.